SL-8 DEB *, 3745

Orbit data source: Space-Track

SL-8 DEB *, 3745 is space debris in LEO originally from a launch on Mon, 15 Mar 1965 UTC launched from the Tyuratam Missile And Space Complex (TTMTR). Debris objects in space refer to the collection of defunct objects orbiting the Earth. Examples of debris include non-operational satellites, rocket bodies, and fragments generated from explosions, collisions, or faulty payload assembly.

Loading next visibility...
Identifier
3745, 1965-020ET
Orbit
LEO
Country
Flag of CISCIS
Related business
Manufacturer
Unknown
Mission
Spacecraft
Bus & Motor
Unknown
Mass
Unknown
Launch date (UTC)
1965-03-15 (61 years ago)
Launch vehicle
Unknown
Launch site
Tyuratam Missile And Space Complex (TTMTR)
Object type
Payload
Rocket body
Debris
Shape & HBR
Unknown shape, 0.1 m
Radar Cross Section
Small (<0.1 m²)

Expand to show TLE details & history
Last TLE update: 20 hours ago

TLE from 20 hours ago
0 SL-8 DEB *
1 03745U 65020ET  25286.58292164  .00000054  00000-0  92368-3 0  9992
2 03745  56.0203 343.2932 0165922 342.1715 166.5229 12.50977920610124
Epoch: 2025-10-13T13:59Z
TLE epoch observation values (Epoch: 2025-10-13T13:59:24.429Z)
Latitude
25.23723°
Longitude
-87.37302°
Altitude
1,588.237 km
Speed
7.02 km/s
True Right ascension
09h 39m 26s
True Declination
25° 07' 07"
Sunlit
Object was in daylight at epoch
Visualization orbit readout
Latitude
Unknown
Longitude
Unknown
Altitude
Unknown
Speed
Unknown
Apparent Right ascension
Unknown
Apparent Declination
Unknown
Sunlit
N/A
Visualization observer readout
Local Sidereal Time
04:42:01
Azimuth
Unknown
Elevation
Unknown
Doppler factor
Unknown
Orbital elements
Apogee altitude
1,590.291 km
Perigee altitude
1,330.179 km
Semi-major axis
7,838.372 km
Eccentricity
0.01659
Inclination
56.0203°
RAAN
343.2932°
Arg. of periapsis
342.1715°
True anomaly
166.95725°
Mean anomaly
166.5229°
Eccentric anomaly
166.74094°
Mean motion
3.12755 °/min
Orbital period
115.11 mins
BSTAR
0.00092368
Loading maneuver chart data...
Computing Atmospheric mass density...

Documentation

Showing up to 5 results
|